Regional Weather Roundup
Issued by NWS Wakefield, VA

Home | Current Version | Previous Version | Graphics & Text | Print | Product List | Glossary On
Versions: 1 2 3 4 5 6 7 8 9 10 11 12 13 14 15 16 17 18 19 20 21 22 23 24 25 26 27 28 29 30 31 32 33 34 35 36 37 38 39 40 41 42 43 44 45 46 47 48 49 50
000
ASUS41 KAKQ 222310
RWRAKQ

REGIONAL WEATHER ROUNDUP
NATIONAL WEATHER SERVICE WAKEFIELD VA
700 PM EDT MON SEP 22 2014

Note: "fair" indicates few or no clouds below 12,000 feet with no
significant weather and/or obstructions to visibility. * = Denotes
station may not report precipitation (e.g., rain,snow,etc.),
thunder or fog.

VAZ042-051-052>054-056-230000-
NORTHERN VIRGINIA

CITY           SKY/WX    TMP DP  RH WIND       PRES   REMARKS
WASH NATIONAL  MOCLDY    69  43  38 N10       30.09R
DULLES         MOCLDY    65  43  44 N12       30.10R
FORT BELVOIR   PTCLDY    67  46  47 N7        30.10R
QUANTICO       PTCLDY    66  48  52 NW7       30.10R
FREDERICKSBRG* PTCLDY    69  47  44 NW5       30.09R
STAFFORD*      PTCLDY    62  48  60 CALM      30.13R
WARRENTON      PTCLDY    64  53  67 W3        30.10R
CULPEPER*      MOCLDY    66  46  48 CALM      30.11R
MANASSAS*      MOCLDY    66  46  48 N9        30.10R
LEESBURG*      MOCLDY    64  46  52 N6        30.11R
WINCHESTER     PTCLDY    64  41  42 W10       30.12R
FRONT ROYAL*   MOCLDY    63  43  48 NW6       30.11S
LURAY*         MOCLDY    64  45  48 N8        30.13R
$$

VAZ048-049-060>072-079>083-230000-
CENTRAL AND SOUTH CENTRAL VIRGINIA...AND NORTH CENTRAL NORTH CAROLINA

CITY           SKY/WX    TMP DP  RH WIND       PRES   REMARKS
RICHMOND       PTCLDY    71  46  40 N7        30.07R
CHESTERFIELD*  CLEAR    N/A N/A N/A N3        30.08R
PETERSBURG*    CLEAR     65  56  71 CALM      30.07R
HANOVER        CLEAR     66  51  58 CALM      30.10R
TAPPAHANNOCK*  CLEAR     68  45  44 CALM      30.09R
CHARLOTTSVILLE MOCLDY    66  47  50 N5        30.10R
ORANGE*        MOCLDY    64  45  48 N5        30.12R
LOUISA*        PTCLDY    66  48  52 NE6       30.09R
FARMVILLE*     CLEAR     70  52  52 N5        30.06R
CREWE*         PTCLDY    67  55  66 NE3       30.07R
FORT PICKETT*  PTCLDY    68  57  68 CALM      30.07R
LUNENBURG*     PTCLDY    68  60  75 CALM      30.07R
SOUTH HILL*    PTCLDY    68  59  73 CALM      30.13R
LAWRENCEVILLE* PTCLDY    65  60  82 CALM      30.07S
ROANOKE RAPIDS PTCLDY    66  57  72 CALM      30.07R
RALEIGH        MOCLDY    67  57  70 CALM      30.09R
$$

VAZ088>098-230000-
SOUTHEAST VIRGINIA

CITY           SKY/WX    TMP DP  RH WIND       PRES   REMARKS
NORFOLK        CLEAR     71  55  56 NE12      30.06R
VIRGINIA BEACH PTCLDY    69  53  56 N3        30.06R
NORFOLK NAVAL  PTCLDY    72  56  57 NE9       30.08R
WEST POINT*    CLEAR     70  52  52 NE3       30.09R
NEWPORT NEWS   CLEAR     72  57  59 N5        30.06R
LANGLEY AFB    PTCLDY    71  55  56 N9        30.05R
FORT EUSTIS    CLEAR     72  49  44 N5        30.05R
WILLIAMSBURG*  CLEAR     72  57  60 N3        30.08R
HR EXEC AP*    CLEAR     63  57  82 CALM      30.08R
FRANKLIN*      PTCLDY    70  57  64 CALM      30.06R
WAKEFIELD      PTCLDY    68  61  78 CALM      30.07R
$$

VAZ020-022-025-037-045-230000-
WEST CENTRAL AND SOUTHWEST VIRGINIA

CITY           SKY/WX    TMP DP  RH WIND       PRES   REMARKS
STAUNTON*      MOCLDY    68  41  38 N8        30.13R
HOT SPRINGS VA PTCLDY    51  30  44 NW12      30.19R
LYNCHBURG      MOCLDY    62  54  74 W3        30.10R
DANVILLE       MOCLDY    66  56  70 NE5       30.09R
SOUTH BOSTON*  NOT AVBL
MARTINSVILLE   MOCLDY    65  53  65 N5        30.14R
ROANOKE        MOCLDY    66  49  54 W7        30.13R
BLACKSBURG     MOCLDY    63  54  72 W3        30.17R
DUBLIN*        MOCLDY    62  49  62 NW6       30.18R
MARION*        PTCLDY    60  47  64 W6        30.21R
HILLSVILLE*    MOCLDY    59  48  66 NW8       30.16R
RICHLANDS*     PTCLDY    60  49  67 N6        30.19S
WISE*          PTCLDY    59  45  58 N5        30.22R
ABINGDON*      CLEAR     64  49  57 N6        30.18R
$$

MDZ021>025-VAZ099-100-230000-
SOUTHERN MARYLAND AND THE DELMARVA PENINSULA

CITY           SKY/WX    TMP DP  RH WIND       PRES   REMARKS
PATUXENT RIVER PTCLDY    68  44  42 N7        30.07R
BAY BRIDGE APT   N/A     66  45  45 NW10G17   30.08R
LEONARDTOWN    CLEAR     66  45  45 CALM      30.09R
DOVER          PTCLDY    64  47  53 NW9       30.04R
GEORGETOWN     MOCLDY    68  50  52 VRB5      30.07R
EASTON         NOT AVBL
CAMBRIDGE      MOCLDY    70  50  49 W3        30.07R
SALISBURY      PTCLDY    69  51  52 W6        30.06R
OCEAN CITY     CLEAR     66  50  56 NW5       30.06R
WALLOPS ISLAND CLEAR     68  53  58 N6        30.07R
ACCOMACK*      CLEAR     64  52  63 N5        30.07R
$$

NCZ012>017-030>032-230000-
EASTERN NORTH CAROLINA

CITY           SKY/WX    TMP DP  RH WIND       PRES   REMARKS
ELIZABETH CITY CLEAR     69  57  65 E8        30.06R
AHOSKIE*       PTCLDY    68  57  67 CALM      30.07R
EDENTON*       CLEAR     69  62  78 CALM      30.06R
CURRITUCK*     CLEAR     71  54  55 E3        30.07R
KILL DEVIL HLS CLEAR     70  57  61 NE6       30.05R
MANTEO         CLEAR     70  58  64 NE7       30.06R
CAPE HATTERAS  PTCLDY    69  61  75 NE6       30.04R
TARBORO*       PTCLDY    70  59  66 CALM      30.07R HAZE
GOLDSBORO      PTCLDY    74  61  64 CALM      30.04R
WASHINGTON     CLEAR     69  61  75 CALM      30.06R
GREENVILLE     PTCLDY    70  61  73 CALM      30.07R
NEW BERN       CLEAR     73  60  63 CALM      30.05R
WILMINGTON     MOCLDY    75  64  68 CALM      30.04R
$$

VAZ048-230000-
ELSEWHERE

CITY           SKY/WX    TMP DP  RH WIND       PRES   REMARKS
HARRISBURG PA  PTCLDY    61  42  49 NW15      30.10R
BALTIMORE      MOCLDY    64  44  48 NW8       30.09R
ANNAPOLIS      PTCLDY    66  47  50 MISG      30.08R
ANDREWS AFB    PTCLDY    65  44  47 N13       30.09R
WILMINGTON DE  PTCLDY    63  46  54 NW13      30.07R
PHILADELPHIA   MOCLDY    67  45  45 NW15G21   30.06R
WILDWOOD NJ*   PTCLDY    66  46  48 NW8       30.06R
ATLANTIC CITY  CLEAR     64  50  60 W6        30.05R
HENDERSON NC   MOCLDY    66  57  71 CALM      30.08R
GREENSBORO     MOCLDY    71  52  50 NE3       30.09R
ROCKY MOUNT    PTCLDY    71  56  58 N7        30.07R
FAYETTEVILLE   CLOUDY    73  55  53 N10       30.06R
CHARLOTTE      MOCLDY    71  54  54 N6        30.09R
$$

VAZ100-230000-
MARINE

STATION/POSITION TIME  TEMP    WIND        PRES    WAVE   SWELL
                       AIR SEA DIR/SP/G            HT/PER HT/PER
                 (UTC) (F)     (DEG/KT/KT) (MB)    (FT/S) (FT/S)
44066 TX TWR #4  2300   68 71  290/ 16/ 17 1015.4R   6/10   5/10
CAPE MAY NJ      2300   69 75  320/ 13/ 17 1016.8S
LEWES DE         2300   70 72  320/ 14/ 16 1017.1S
15NM E FENWICK I 2300   70 72              1017.0R   3/ 9
OCEAN-CITY-INLET 2300   70 72  320/  7/  9 1017.1R
WACHAPREAGUE VA  2300   69 75  360/  2/  4 1017.9S
THOMAS POINT MD  2300   67 73  310/ 12/ 14 1019.6R
GOOSES REEF MD   2300   70     340/ 14/ 17 1018.7R
COVE POINT MD    2300   69     350/ 11/ 14 1018.2R
SOLOMONS ISLAND  2300      75                N/A
BISHOPS HEAD MD  2300   69 72  330/  9/ 12 1017.8S
PINEY POINT MD   2300           30/ 11/ 12   N/A
POTOMAC MD       2300   72      10/  8/ 10 1017.7R
CAMBRIDGE MD     2300   69 73  300/  8/ 11 1017.8S
LEWISETTA VA     2300   71 74  320/  8/  9 1017.9S
RAPPAHANNOCK LGT 2300          340/ 16/ 18 1018.4R
STINGRAY PT      2300   72     350/ 12/ 14   N/A
YORK RVR RNG VA  2300   72      10/ 12/ 14 1017.1F
YORKTOWN VA      2300   73 76   10/  9/ 11 1017.3S
JAMESTOWN VA     2300   72      30/  4/  6   N/A
DOMINION TERM VA 2300   73      60/  8/ 11 1017.5F
KIPTOPEKE VA     2300      79   50/  5/  7   N/A
CHES BAY BRIDGE  2300   72 75   20/ 11/ 12 1017.0F
CAPE HENRY VA    2300   72      10/ 10/ 12 1016.3S
CHESAPEAKE LGHT  2200   71      10/  8/  8 1017.9R
WILLOUBY STN VA  2300   72      50/ 10/ 12 1016.4R
S CRANEY ISL VA  2300           50/ 10/ 12 1017.5R
CAPE HENRY BUOY  2200      75                N/A     3/ 8
1ST LANDING BUOY 2300   73      10/ 10/ 12 1017.2S
CAPE CHARLES BUO 2200      75                N/A     3/ 8   2/ 8
64NM E OF VA BCH 2200   71 76  350/ 12/ 14 1016.7R   4/ 8   3/ 8
DUCK PIER NC     2300   72 75   40/ 10/ 12 1016.9R
44100 DUCK FRF   2200      74                N/A     4/ 8
OREGON INLET NC  2300   72 75   30/  9/ 13 1017.2S
DIAMOND SHLS NC  2300   74      20/ 14/ 17 1016.7R   4/ 8   2/ 8
CAPE LOOKOUT NC  2200   76      10/  8/  9 1016.2R
$$


USA.gov is the U.S. government's official web portal to all federal, state and local government web resources and services.